Home > Weather > Chur > Past weeks

Flag for Switzerland Past Weather in Chur, Graubünden, Switzerland — Yesterday and Last 2 Weeks

Now
73 °F

Overcast.


Feels Like: 76 °F
Forecast: 62 / 82 °F
Wind: 6 mph from Northeast

Location: Chur

Current Time: Jul 26, 2016 at 12:24:56 PM

Latest Report: Jul 26, 2016 at 11:00 AM


Visibility: 7 mi

Pressure: 30.06 "Hg (28.07 "Hg at 592m altitude)

Humidity: 64%

Dew Point: 60 °F

Location of ChurLocation

Past Weather in Chur — Graph

°F

Chur Temperature Yesterday

Maximum temperature yesterday: 77 °F (at 3:00 PM)
Minimum temperature yesterday: 61 °F (at 5:00 AM)
Average temperature yesterday: 69 °F

High & Low Weather Summary for the Past Weeks

 TemperatureHumidityPressure
High89 °F (Jul 20, 4:00 PM)96% (Jul 12, 6:00 AM)30.39 "Hg (Jul 12, 6:00 AM)
Low47 °F (Jul 16, 6:00 AM)33% (Jul 20, 3:00 PM)29.77 "Hg (Jul 11, 4:00 PM)
Average66 °F74%30.08 "Hg
* Reported Jul 11 11:00 AM — Jul 26 11:00 AM, Chur, Weather by CustomWeather, © 2016

Note: Actual official high and low records may vary slightly from our data, if they occured in-between our weather recording intervals... More about our weather records

Advertising

Chur Weather History for the Previous 24 Hours

Scroll right to see more
 ConditionsComfort  
Time TempWeatherWind HumidityBarometerVisibility
11:00 AM
Tue, Jul 26
73 °FOvercast.6 mph64%30.06 "Hg7 mi
10:00 AM72 °FMild.1 mph70%30.07 "HgN/A
9:00 AM67 °FMild.2 mph79%30.11 "HgN/A
8:00 AM65 °FScattered clouds.3 mph83%30.12 "Hg6 mi
7:00 AM64 °FMild.1 mph90%30.12 "HgN/A
6:00 AM64 °FMild.2 mph91%30.12 "HgN/A
5:00 AM64 °FPassing clouds.1 mph88%30.11 "Hg3 mi
4:00 AM65 °FMild.2 mph90%30.12 "HgN/A
3:00 AM65 °FMild.2 mph89%30.12 "HgN/A
2:00 AM63 °FMild.No wind94%30.12 "HgN/A
1:00 AM66 °FMild.1 mph87%30.12 "HgN/A
12:00 AM65 °FMild.1 mph89%30.11 "HgN/A
11:00 PM
Mon, Jul 25
69 °FOvercast.2 mph78%30.09 "Hg3 mi
10:00 PM70 °FMild.6 mph79%30.09 "HgN/A
9:00 PM71 °FMild.9 mph74%30.06 "HgN/A
8:00 PM72 °FMild.12 mph71%30.04 "HgN/A
7:00 PM74 °FMild.13 mph62%30.02 "HgN/A
6:00 PM76 °FMild.12 mph63%30.00 "HgN/A
5:00 PM77 °FPartly sunny.14 mph57%29.99 "Hg11 mi
4:00 PM76 °FMild.13 mph62%29.99 "HgN/A
3:00 PM77 °FWarm.15 mph59%29.99 "HgN/A
2:00 PM76 °FMild.14 mph64%30.01 "HgN/A
1:00 PM74 °FMild.9 mph71%30.03 "HgN/A
12:00 PM73 °FMild.9 mph69%30.05 "HgN/A
Weather by CustomWeather, © 2016

See weather overviewHow to use our weather pages